Location: Penjur
(34.9751°N, 90.4282°W)
Time: 12:32:34
(UTC+00:00)

Daily predictions for brighter satellites

Satellite Brightness Start Highest point End
(mag) Time Altitude Azimuth Time Altitude Azimuth Time Altitude Azimuth
Cosmos 1933 4.3 12:01:33 13° NW 12:04:01 24° W 12:07:06 10° SW
Cosmos 1814 Rocket 4.1 12:03:23 10° SSW 12:08:34 82° ESE 12:13:50 10° NNE
USA 267 4.2 12:03:35 10° NE 12:09:56 53° SE 12:16:16 10° SSW
Meteor 1-26 Rocket 4.3 12:04:54 10° N 12:10:28 85° E 12:16:12 10° S
NOSS 2-1 (C) 3.6 12:06:32 10° NNW 12:10:29 83° WSW 12:16:03 10° SSE
Cosmos 2322 Rocket 3.5 12:07:35 10° N 12:12:54 39° ENE 12:18:08 10° SE
COSMO-SKYMED 1 3.1 12:10:00 10° SSW 12:13:44 34° W 12:17:29 10° NNW
CBERS-1 4.0 12:09:17 10° N 12:14:20 70° WNW 12:19:23 10° SSW
Cosmos 2058 Rocket 3.0 12:12:02 10° N 12:16:27 76° W 12:20:50 10° S
ATLAS 2AS CENTAUR R/B 3.8 12:10:08 10° S 12:17:01 53° ESE 12:23:43 10° NE
Cosmos-2242 2.9 12:14:06 10° N 12:18:20 80° W 12:22:29 10° S
CZ-3C R/B 3.9 12:14:32 10° SW 12:19:49 35° SSE 12:49:20 10° ESE
COSMOS 2406 4.2 12:16:31 10° WSW 12:20:58 23° WNW 12:25:27 10° N
Cosmos 2237 4.5 12:17:05 10° NNW 12:22:33 49° WSW 12:27:59 10° S
Thor Agena Rocket 3.5 12:19:33 10° NNE 12:24:37 83° WNW 12:29:37 10° SSW
SMAP 3.1 12:20:35 10° NNE 12:25:16 87° W 12:29:55 10° SSW
IRIDIUM 106 4.3 12:20:34 10° S 12:25:46 80° W 12:31:01 10° N
Landsat 7 3.9 12:26:48 10° NNE 12:31:29 86° ESE 12:36:07 10° SSW
CENTAUR R/B 4.3 23:08:08 10° W 23:12:21 21° NW 23:17:16 10° N
NOSS 2-2 (E) 4.4 23:14:27 10° SW 23:17:58 34° WNW 23:20:54 10° N
SL-16 R/B 3.5 23:12:10 10° N 23:18:08 50° WNW 23:24:03 10° SW
ATLAS CENTAUR R/B 2.7 23:17:55 10° NNE 23:19:11 12° NE 23:20:25 10° ENE
Cosmos 1697 Rocket 3.3 23:15:28 10° S 23:20:31 36° ESE 23:25:35 10° NE
Cosmos 1484 Rocket 3.5 23:17:34 10° S 23:21:00 51° W 23:24:27 10° NNW
BlueWalker 3 3.6 23:19:18 10° N 23:21:34 16° NNE 23:23:49 10° ENE
Cosmos 1743 3.1 23:18:44 10° NNE 23:21:37 29° E 23:24:28 10° SE
SMAP 3.1 23:20:13 10° SSE 23:24:48 64° ENE 23:29:25 10° N
Cosmos 1626 Rocket 3.4 23:20:39 10° N 23:24:58 71° E 23:29:13 10° SSE
CBERS-1 4.5 23:20:46 10° S 23:25:50 68° WSW 23:30:56 10° NNW
Cosmos 1606 Rocket 4.4 23:22:43 10° SSE 23:26:30 29° E 23:30:20 10° NNE
Cosmos 1461 2.7 23:23:44 10° SSW 23:27:32 69° ESE 23:31:26 10° NNE
Gbstr 26 Del rocket 2.8 23:23:32 10° SW 23:27:52 75° SE 23:31:38 10° NE
ATLAS 5 CENTAUR R/B 4.5 23:22:41 10° S 23:28:21 46° E 23:48:32 10° NE
SAR-Lupe-3 4.4 23:26:54 10° NNE 23:29:14 33° E 23:31:33 10° SSE
Cosmos 2151 3.5 23:26:14 10° NNE 23:30:04 35° E 23:33:54 10° SSE
Landsat 7 3.8 23:26:21 10° SSE 23:30:52 56° ENE 23:35:26 10° N
IRS-1C 4.2 23:26:01 10° SSE 23:31:11 56° ENE 23:36:23 10° N
Meteor 1-20 Rocket 4.5 23:29:51 10° N 23:35:00 42° ENE 23:40:08 10° SSE
Cosmos 1544 Rocket 4.3 23:31:05 10° SSW 23:35:22 56° W 23:39:43 10° N
Thor Agena Rocket 3.8 23:32:16 10° S 23:37:29 76° WSW 23:42:42 10° NNW
SAR-Lupe-4 3.4 23:38:03 10° SSE 23:41:35 68° ENE 23:45:06 10° N
Cosmos 1733 2.0 23:40:13 10° NNW 23:42:03 55° W 23:43:53 10° S
Okean 1-7 Rocket 4.1 23:39:02 10° NNE 23:43:05 36° E 23:47:05 10° SSE
SAR-Lupe-1 3.9 23:45:32 10° SSE 23:49:05 73° ENE 23:52:41 10° N
Cosmos 1503 Rocket 4.2 23:46:54 10° SSW 23:52:10 77° WNW 23:57:24 10° NNE
Cosmos 1726 Rocket 4.0 23:48:29 10° SSE 23:52:51 45° E 23:57:17 10° NNE
